DB0TGO-14 Weather Reports


Display with metric or nautical units.
time (UTC)temp
F
wind
direction
speed
MPH
gust
MPH
rain 1hr
in
rain 24hr
in
rain mn
in
humidity
%
barometer
mb
20260510211600 59 68 2.0 6.0 0.00 0.00 0.00 68 1008.4
20260510211415 59 68 2.0 5.0 0.00 0.00 0.00 68 1008.4
20260510211220 59 68 2.0 5.0 0.00 0.00 0.00 68 1008.5
20260510211034 59 68 2.0 2.0 0.00 0.00 0.00 67 1008.6
20260510210848 59 68 2.0 5.0 0.00 0.00 0.00 67 1008.6
20260510210700 60 45 2.0 5.0 0.00 0.00 0.00 66 1008.6
20260510210525 60 45 2.0 7.0 0.00 0.00 0.00 66 1008.7
20260510210324 60 292 2.0 7.0 0.00 0.00 0.00 66 1008.7
20260510210132 60 22 2.0 7.0 0.00 0.00 0.00 66 1008.7
20260510205935 60 68 2.0 4.0 0.00 0.00 0.00 65 1008.8
20260510205740 60 45 1.0 4.0 0.00 0.00 0.00 65 1008.8
20260510205553 60 45 2.0 4.0 0.00 0.00 0.00 65 1008.8
20260510205406 60 68 3.0 5.0 0.00 0.00 0.00 64 1008.8
20260510205216 60 68 3.0 6.0 0.00 0.00 0.00 64 1008.8
20260510205025 60 68 3.0 7.0 0.00 0.00 0.00 63 1008.8
20260510204826 61 68 3.0 7.0 0.00 0.00 0.00 63 1008.7
20260510204706 61 68 4.0 7.0 0.00 0.00 0.00 62 1008.7
20260510204630 61 68 3.0 7.0 0.00 0.00 0.00 62 1008.8
20260510204440 61 68 3.0 4.0 0.00 0.00 0.00 63 1008.9
20260510204245 61 68 3.0 4.0 0.00 0.00 0.00 62 1008.8
20260510204055 61 68 3.0 5.0 0.00 0.00 0.00 62 1008.9
20260510203915 61 68 4.0 5.0 0.00 0.00 0.00 62 1008.8
20260510203735 61 90 4.0 6.0 0.00 0.00 0.00 62 1009.0
20260510203545 61 22 4.0 10.0 0.00 0.00 0.00 62 1009.0
20260510203343 61 45 4.0 10.0 0.00 0.00 0.00 61 1009.0
20260510203155 60 90 4.0 8.0 0.00 0.00 0.00 62 1009.0
20260510203057 60 68 4.0 6.0 0.00 0.00 0.00 62 1009.1
20260510202955 60 68 4.0 7.0 0.00 0.00 0.00 62 1009.1
20260510202815 60 45 4.0 7.0 0.00 0.00 0.00 62 1009.1
20260510202626 60 45 3.0 7.0 0.00 0.00 0.00 62 1009.1
20260510202434 60 90 3.0 7.0 0.00 0.00 0.00 62 1009.1
20260510202238 60 45 2.0 6.0 0.00 0.00 0.00 63 1009.1
20260510202045 60 45 2.0 5.0 0.00 0.00 0.00 63 1009.2
20260510201850 61 68 1.0 5.0 0.00 0.00 0.00 63 1009.2
20260510201655 61 68 1.0 5.0 0.00 0.00 0.00 62 1009.2
20260510201503 61 68 1.0 5.0 0.00 0.00 0.00 62 1009.3
20260510201328 61 68 2.0 5.0 0.00 0.00 0.00 61 1009.2
20260510201305 61 90 2.0 5.0 0.00 0.00 0.00 61 1009.2
20260510201125 61 22 1.0 4.0 0.00 0.00 0.00 61 1009.2
20260510200946 61 22 2.0 4.0 0.00 0.00 0.00 61 1009.2
20260510200754 61 68 2.0 4.0 0.00 0.00 0.00 61 1009.2
20260510200615 61 45 2.0 4.0 0.00 0.00 0.00 61 1009.2
20260510200430 61 68 2.0 3.0 0.00 0.00 0.00 60 1009.2
20260510200246 61 45 2.0 6.0 0.00 0.00 0.00 60 1009.2
20260510200105 61 45 2.0 6.0 0.00 0.00 0.00 60 1009.3
20260510195915 61 68 3.0 6.0 0.00 0.00 0.00 59 1009.3
20260510195730 61 68 2.0 6.0 0.00 0.00 0.00 59 1009.2
20260510195540 61 68 2.0 7.0 0.00 0.00 0.00 59 1009.3
20260510195356 61 45 2.0 7.0 0.00 0.00 0.00 59 1009.3
20260510195155 61 45 2.0 5.0 0.00 0.00 0.00 58 1009.3
20260510195015 61 22 1.0 5.0 0.00 0.00 0.00 58 1009.3
20260510194815 61 68 1.0 3.0 0.00 0.00 0.00 59 1009.3
20260510194630 61 68 0.0 2.0 0.00 0.00 0.00 59 1009.3
20260510194432 61 0 0.0 1.0 0.00 0.00 0.00 59 1009.4
20260510194251 61 0 0.0 0.0 0.00 0.00 0.00 59 1009.4
20260510194107 61 0 0.0 0.0 0.00 0.00 0.00 59 1009.4
20260510193915 61 0 0.0 0.0 0.00 0.00 0.00 59 1009.3
20260510193907 61 0 0.0 0.0 0.00 0.00 0.00 59 1009.3
20260510193732 61 68 0.0 0.0 0.00 0.00 0.00 58 1009.4
20260510193554 61 68 0.0 0.0 0.00 0.00 0.00 58 1009.3
20260510193401 61 68 0.0 0.0 0.00 0.00 0.00 59 1009.4
20260510193215 61 68 0.0 2.0 0.00 0.00 0.00 58 1009.4
20260510193020 61 68 0.0 2.0 0.00 0.00 0.00 58 1009.4
20260510192820 61 68 0.0 2.0 0.00 0.00 0.00 58 1009.4
20260510192640 61 0 0.0 0.0 0.00 0.00 0.00 57 1009.4
20260510192450 61 0 0.0 0.0 0.00 0.00 0.00 58 1009.4
20260510192310 62 0 0.0 0.0 0.00 0.00 0.00 57 1009.4
20260510192118 62 0 0.0 0.0 0.00 0.00 0.00 57 1009.5
20260510191923 62 0 0.0 0.0 0.00 0.00 0.00 57 1009.4
20260510191740 62 0 0.0 0.0 0.00 0.00 0.00 57 1009.5
20260510191545 62 0 0.0 0.0 0.00 0.00 0.00 57 1009.5
20260510191355 62 0 0.0 0.0 0.00 0.00 0.00 56 1009.4
20260510191210 62 0 0.0 0.0 0.00 0.00 0.00 56 1009.4
20260510191025 62 0 0.0 0.0 0.00 0.00 0.00 56 1009.5
20260510190827 62 0 0.0 0.0 0.00 0.00 0.00 56 1009.4
20260510190645 62 0 0.0 0.0 0.00 0.00 0.00 55 1009.4
20260510190445 62 68 0.0 0.0 0.00 0.00 0.00 55 1009.3
20260510190300 63 68 0.0 0.0 0.00 0.00 0.00 55 1009.4
20260510190120 63 68 0.0 3.0 0.00 0.00 0.00 54 1009.4
20260510185934 63 68 0.0 3.0 0.00 0.00 0.00 54 1009.3
20260510185754 63 68 0.0 3.0 0.00 0.00 0.00 54 1009.4
20260510185606 63 68 0.0 2.0 0.00 0.00 0.00 54 1009.3
20260510185420 63 45 0.0 2.0 0.00 0.00 0.00 54 1009.3
20260510185220 64 45 0.0 2.0 0.00 0.00 0.00 54 1009.3
20260510185040 64 45 0.0 1.0 0.00 0.00 0.00 54 1009.3
20260510184902 64 45 0.0 2.0 0.00 0.00 0.00 54 1009.3
20260510184715 64 45 1.0 2.0 0.00 0.00 0.00 53 1009.4
20260510184702 64 45 1.0 2.0 0.00 0.00 0.00 53 1009.4
20260510184519 64 45 1.0 2.0 0.00 0.00 0.00 53 1009.4
20260510184331 64 45 1.0 2.0 0.00 0.00 0.00 53 1009.4
20260510184154 65 45 1.0 2.0 0.00 0.00 0.00 52 1009.4
20260510184013 65 45 1.0 2.0 0.00 0.00 0.00 52 1009.5
20260510183835 65 45 1.0 2.0 0.00 0.00 0.00 52 1009.6
20260510183640 65 45 1.0 2.0 0.00 0.00 0.00 52 1009.5
20260510183440 65 22 1.0 2.0 0.00 0.00 0.00 52 1009.5
20260510183253 65 22 2.0 5.0 0.00 0.00 0.00 51 1009.5
20260510183106 65 22 2.0 5.0 0.00 0.00 0.00 51 1009.4
20260510182919 66 22 2.0 5.0 0.00 0.00 0.00 51 1009.4
20260510182739 66 45 2.0 5.0 0.00 0.00 0.00 51 1009.4
20260510182540 66 45 2.0 5.0 0.00 0.00 0.00 50 1009.4
20260510182340 67 45 2.0 5.0 0.00 0.00 0.00 50 1009.4
20260510182140 67 338 2.0 4.0 0.00 0.00 0.00 49 1009.4
20260510181945 67 22 2.0 5.0 0.00 0.00 0.00 49 1009.4
20260510181801 67 22 1.0 5.0 0.00 0.00 0.00 49 1009.4
20260510181602 68 68 1.0 5.0 0.00 0.00 0.00 49 1009.4
20260510181406 68 68 1.0 5.0 0.00 0.00 0.00 48 1009.4
20260510181201 68 338 1.0 5.0 0.00 0.00 0.00 47 1009.4
20260510181014 68 45 1.0 4.0 0.00 0.00 0.00 47 1009.4
20260510180835 68 45 1.0 4.0 0.00 0.00 0.00 47 1009.4
20260510180635 69 45 2.0 4.0 0.00 0.00 0.00 47 1009.4
20260510180443 69 0 2.0 5.0 0.00 0.00 0.00 46 1009.5
20260510180250 70 0 2.0 5.0 0.00 0.00 0.00 46 1009.4
20260510180055 70 338 2.0 5.0 0.00 0.00 0.00 45 1009.4
20260510175915 70 22 1.0 3.0 0.00 0.00 0.00 45 1009.4
20260510175720 71 22 1.0 3.0 0.00 0.00 0.00 45 1009.4
20260510175544 71 22 0.0 2.0 0.00 0.00 0.00 44 1009.4
20260510175432 71 68 0.0 2.0 0.00 0.00 0.00 44 1009.4
20260510175407 71 68 0.0 2.0 0.00 0.00 0.00 44 1009.4
20260510175230 71 68 0.0 2.0 0.00 0.00 0.00 43 1009.4
20260510175035 71 0 0.0 0.0 0.00 0.00 0.00 44 1009.4
20260510174845 71 0 0.0 0.0 0.00 0.00 0.00 44 1009.5
20260510174706 71 22 0.0 2.0 0.00 0.00 0.00 43 1009.4
20260510174526 71 22 0.0 2.0 0.00 0.00 0.00 42 1009.5
20260510174335 71 22 0.0 2.0 0.00 0.00 0.00 42 1009.5
20260510174135 71 22 0.0 1.0 0.00 0.00 0.00 43 1009.4
20260510173937 71 22 0.0 1.0 0.00 0.00 0.00 43 1009.4
20260510173913 71 22 0.0 1.0 0.00 0.00 0.00 43 1009.4
20260510173800 71 22 0.0 0.0 0.00 0.00 0.00 42 1009.5
20260510173608 71 22 0.0 2.0 0.00 0.00 0.00 43 1009.5
20260510173420 72 22 0.0 2.0 0.00 0.00 0.00 43 1009.5
20260510173227 72 22 0.0 2.0 0.00 0.00 0.00 42 1009.4
20260510173040 72 270 0.0 1.0 0.00 0.00 0.00 42 1009.5
20260510172901 72 22 0.0 2.0 0.00 0.00 0.00 42 1009.6
20260510172705 72 22 0.0 2.0 0.00 0.00 0.00 41 1009.6
20260510172520 72 338 0.0 1.0 0.00 0.00 0.00 41 1009.6
20260510172320 72 315 0.0 1.0 0.00 0.00 0.00 41 1009.6
20260510172152 72 315 1.0 2.0 0.00 0.00 0.00 41 1009.6
20260510172125 72 315 1.0 2.0 0.00 0.00 0.00 41 1009.6
20260510171928 72 315 0.0 2.0 0.00 0.00 0.00 41 1009.7
20260510171735 72 315 0.0 2.0 0.00 0.00 0.00 41 1009.7
20260510171540 72 292 1.0 2.0 0.00 0.00 0.00 42 1009.7
20260510171350 72 292 1.0 2.0 0.00 0.00 0.00 41 1009.6
20260510171150 72 338 1.0 3.0 0.00 0.00 0.00 41 1009.8
20260510171005 72 338 1.0 4.0 0.00 0.00 0.00 41 1009.8
20260510170815 72 22 1.0 4.0 0.00 0.00 0.00 40 1009.8
20260510170620 71 22 1.0 4.0 0.00 0.00 0.00 41 1009.7
20260510170443 71 22 1.0 3.0 0.00 0.00 0.00 40 1009.8
20260510170245 71 22 2.0 5.0 0.00 0.00 0.00 41 1009.8
20260510170100 71 22 2.0 5.0 0.00 0.00 0.00 41 1009.8
20260510165915 72 45 2.0 9.0 0.00 0.00 0.00 42 1009.8
20260510165735 73 0 2.0 2.0 0.00 0.00 0.00 40 1009.8
20260510165550 73 248 2.0 5.0 0.00 0.00 0.00 41 1009.9
20260510165350 74 248 2.0 5.0 0.00 0.00 0.00 40 1009.9
20260510165205 74 270 1.0 5.0 0.00 0.00 0.00 40 1010.0
20260510165022 75 292 1.0 5.0 0.00 0.00 0.00 39 1010.1
20260510164835 75 315 2.0 5.0 0.00 0.00 0.00 38 1010.1
20260510164655 76 315 1.0 5.0 0.00 0.00 0.00 38 1010.2
20260510164505 76 292 1.0 2.0 0.00 0.00 0.00 35 1010.2
20260510164320 76 292 1.0 2.0 0.00 0.00 0.00 36 1010.2
20260510164135 76 292 1.0 2.0 0.00 0.00 0.00 37 1010.1
20260510163934 76 270 1.0 4.0 0.00 0.00 0.00 36 1010.1
20260510163739 76 270 1.0 4.0 0.00 0.00 0.00 36 1010.2
20260510163545 76 270 1.0 4.0 0.00 0.00 0.00 37 1010.2
20260510163441 76 270 1.0 4.0 0.00 0.00 0.00 36 1010.2
20260510163356 76 292 1.0 3.0 0.00 0.00 0.00 35 1010.2
20260510163202 76 292 1.0 3.0 0.00 0.00 0.00 35 1010.2
20260510163020 75 315 1.0 3.0 0.00 0.00 0.00 35 1010.3
20260510162830 75 338 1.0 3.0 0.00 0.00 0.00 35 1010.2
20260510162635 75 292 2.0 3.0 0.00 0.00 0.00 36 1010.2
20260510162440 74 292 2.0 5.0 0.00 0.00 0.00 35 1010.2
20260510162245 74 248 2.0 5.0 0.00 0.00 0.00 36 1010.3
20260510162100 74 22 2.0 5.0 0.00 0.00 0.00 37 1010.2
20260510161916 73 0 2.0 4.0 0.00 0.00 0.00 36 1010.3
20260510161730 73 248 2.0 3.0 0.00 0.00 0.00 36 1010.4
20260510161550 73 248 2.0 3.0 0.00 0.00 0.00 38 1010.5
20260510161350 72 292 3.0 5.0 0.00 0.00 0.00 38 1010.3
20260510161210 72 270 4.0 5.0 0.00 0.00 0.00 40 1010.5
20260510161027 73 292 4.0 5.0 0.00 0.00 0.00 39 1010.4
20260510160835 73 225 4.0 5.0 0.00 0.00 0.00 38 1010.5
20260510160517 74 292 4.0 10.0 0.00 0.00 0.00 39 1010.5
20260510160320 74 270 4.0 10.0 0.00 0.00 0.00 40 1010.5
20260510160202 74 248 4.0 10.0 0.00 0.00 0.00 38 1010.5
20260510160125 75 270 3.0 6.0 0.00 0.00 0.00 38 1010.5
20260510155943 75 225 2.0 5.0 0.00 0.00 0.00 35 1010.6
20260510155745 75 248 2.0 4.0 0.00 0.00 0.00 35 1010.6
20260510155545 74 270 2.0 5.0 0.00 0.00 0.00 35 1010.6
20260510155354 74 248 2.0 5.0 0.00 0.00 0.00 35 1010.6
20260510155200 74 248 2.0 5.0 0.00 0.00 0.00 34 1010.5
20260510155010 74 292 3.0 5.0 0.00 0.00 0.00 35 1010.6
20260510154815 75 292 2.0 4.0 0.00 0.00 0.00 35 1010.6
20260510154620 75 292 3.0 5.0 0.00 0.00 0.00 37 1010.6
20260510154446 76 248 3.0 7.0 0.00 0.00 0.00 37 1010.6
20260510154425 76 248 3.0 7.0 0.00 0.00 0.00 36 1010.7
20260510154243 76 202 3.0 8.0 0.00 0.00 0.00 37 1010.7
20260510154100 76 248 2.0 8.0 0.00 0.00 0.00 37 1010.7
20260510153905 76 225 2.0 5.0 0.00 0.00 0.00 36 1010.7
20260510153710 77 292 2.0 5.0 0.00 0.00 0.00 36 1010.8
20260510153530 77 292 2.0 5.0 0.00 0.00 0.00 33 1010.7
20260510153345 77 270 2.0 5.0 0.00 0.00 0.00 33 1010.7
20260510153150 77 202 2.0 4.0 0.00 0.00 0.00 33 1010.8
20260510152958 76 270 2.0 4.0 0.00 0.00 0.00 34 1010.8
20260510152800 76 270 2.0 5.0 0.00 0.00 0.00 35 1010.9
20260510152620 77 248 2.0 5.0 0.00 0.00 0.00 37 1010.9
20260510152552 77 225 2.0 5.0 0.00 0.00 0.00 36 1010.9
20260510152420 76 248 2.0 3.0 0.00 0.00 0.00 33 1010.9
20260510152235 76 270 2.0 5.0 0.00 0.00 0.00 33 1010.9
20260510152041 76 248 1.0 5.0 0.00 0.00 0.00 35 1011.0
20260510151845 76 248 2.0 6.0 0.00 0.00 0.00 34 1011.0
20260510151655 75 270 1.0 5.0 0.00 0.00 0.00 33 1011.0
20260510151515 75 90 1.0 2.0 0.00 0.00 0.00 34 1011.0
20260510151330 74 292 1.0 2.0 0.00 0.00 0.00 34 1011.0
20260510151140 74 292 2.0 4.0 0.00 0.00 0.00 35 1011.1
20260510151003 73 292 3.0 4.0 0.00 0.00 0.00 33 1011.1
20260510150825 73 292 3.0 4.0 0.00 0.00 0.00 34 1011.2
20260510150806 73 292 3.0 4.0 0.00 0.00 0.00 35 1011.2
20260510150645 72 270 4.0 6.0 0.00 0.00 0.00 34 1011.1
20260510150505 72 292 4.0 7.0 0.00 0.00 0.00 37 1011.2
20260510150320 72 292 4.0 7.0 0.00 0.00 0.00 38 1011.2
20260510150120 72 270 4.0 7.0 0.00 0.00 0.00 38 1011.2
20260510145920 72 248 4.0 6.0 0.00 0.00 0.00 38 1011.3
20260510145725 72 248 4.0 5.0 0.00 0.00 0.00 36 1011.2
20260510145525 72 202 4.0 7.0 0.00 0.00 0.00 38 1011.3
20260510145345 72 158 4.0 7.0 0.00 0.00 0.00 38 1011.4
20260510145237 73 225 4.0 7.0 0.00 0.00 0.00 38 1011.4
20260510145200 73 202 4.0 7.0 0.00 0.00 0.00 38 1011.4
20260510145013 73 225 4.0 8.0 0.00 0.00 0.00 39 1011.4
20260510144815 74 248 4.0 9.0 0.00 0.00 0.00 38 1011.4
20260510144625 74 225 4.0 9.0 0.00 0.00 0.00 37 1011.4
20260510144435 75 158 4.0 9.0 0.00 0.00 0.00 36 1011.5
20260510144245 75 180 4.0 9.0 0.00 0.00 0.00 36 1011.4
20260510144105 75 292 3.0 9.0 0.00 0.00 0.00 36 1011.5
20260510143920 75 225 2.0 7.0 0.00 0.00 0.00 36 1011.5
20260510143725 75 202 2.0 7.0 0.00 0.00 0.00 37 1011.5
20260510143545 75 225 2.0 6.0 0.00 0.00 0.00 35 1011.5
20260510143517 75 135 2.0 6.0 0.00 0.00 0.00 34 1011.5
20260510143410 75 270 2.0 2.0 0.00 0.00 0.00 33 1011.5
20260510143220 74 22 2.0 5.0 0.00 0.00 0.00 35 1011.6
20260510143035 74 225 2.0 8.0 0.00 0.00 0.00 35 1011.7
20260510142835 73 248 3.0 9.0 0.00 0.00 0.00 38 1011.7
20260510142654 73 292 3.0 9.0 0.00 0.00 0.00 37 1011.7
20260510142515 73 225 3.0 5.0 0.00 0.00 0.00 36 1011.7
20260510142340 73 315 3.0 7.0 0.00 0.00 0.00 34 1011.8
20260510142145 73 292 4.0 7.0 0.00 0.00 0.00 36 1011.8
20260510141945 73 292 4.0 7.0 0.00 0.00 0.00 37 1011.8
20260510141922 73 270 4.0 7.0 0.00 0.00 0.00 37 1011.8
20260510141755 73 248 3.0 6.0 0.00 0.00 0.00 36 1011.9
20260510141615 73 248 4.0 7.0 0.00 0.00 0.00 37 1011.8
20260510141425 73 248 4.0 7.0 0.00 0.00 0.00 38 1012.0
20260510141230 73 225 4.0 7.0 0.00 0.00 0.00 38 1012.0
20260510141037 73 248 3.0 5.0 0.00 0.00 0.00 37 1011.9
20260510140850 73 158 3.0 6.0 0.00 0.00 0.00 37 1012.0
20260510140710 73 270 3.0 6.0 0.00 0.00 0.00 37 1011.9
20260510140525 72 292 3.0 6.0 0.00 0.00 0.00 37 1012.0
20260510140330 72 315 3.0 5.0 0.00 0.00 0.00 37 1012.0
20260510140135 72 0 2.0 4.0 0.00 0.00 0.00 37 1012.0
20260510140000 72 292 3.0 4.0 0.00 0.00 0.00 36 1012.1
20260510135815 72 248 3.0 6.0 0.00 0.00 0.00 39 1012.2
20260510135644 71 315 3.0 7.0 0.00 0.00 0.00 39 1012.2
20260510135450 71 292 3.0 8.0 0.00 0.00 0.00 38 1012.2
20260510135301 71 270 3.0 8.0 0.00 0.00 0.00 39 1012.1
20260510135105 71 248 4.0 8.0 0.00 0.00 0.00 39 1012.2
20260510134917 71 248 4.0 6.0 0.00 0.00 0.00 38 1012.3
20260510134740 71 158 4.0 6.0 0.00 0.00 0.00 39 1012.3
20260510134545 72 248 5.0 7.0 0.00 0.00 0.00 39 1012.3
20260510134500 72 202 5.0 7.0 0.00 0.00 0.00 39 1012.2
20260510134400 72 225 5.0 7.0 0.00 0.00 0.00 39 1012.3
20260510134220 72 248 4.0 7.0 0.00 0.00 0.00 39 1012.3
20260510134035 72 225 3.0 7.0 0.00 0.00 0.00 40 1012.3
20260510133835 73 270 2.0 7.0 0.00 0.00 0.00 38 1012.3
20260510133635 73 225 2.0 4.0 0.00 0.00 0.00 37 1012.4
20260510133454 73 248 1.0 2.0 0.00 0.00 0.00 36 1012.4
20260510133255 72 180 2.0 2.0 0.00 0.00 0.00 36 1012.4
20260510133115 72 248 2.0 5.0 0.00 0.00 0.00 37 1012.3
20260510132745 72 248 3.0 5.0 0.00 0.00 0.00 38 1012.4
20260510132631 72 292 3.0 4.0 0.00 0.00 0.00 38 1012.4
20260510132600 72 292 3.0 5.0 0.00 0.00 0.00 38 1012.5
20260510132416 72 292 3.0 5.0 0.00 0.00 0.00 39 1012.4
20260510132220 72 248 3.0 5.0 0.00 0.00 0.00 39 1012.4
20260510132039 72 292 3.0 5.0 0.00 0.00 0.00 39 1012.4
20260510131845 72 22 2.0 5.0 0.00 0.00 0.00 38 1012.4
20260510131650 72 248 2.0 5.0 0.00 0.00 0.00 38 1012.4
20260510131505 72 202 2.0 5.0 0.00 0.00 0.00 38 1012.4
20260510131315 72 248 2.0 5.0 0.00 0.00 0.00 38 1012.5
20260510131121 72 292 3.0 5.0 0.00 0.00 0.00 37 1012.5
20260510130928 72 270 3.0 7.0 0.00 0.00 0.00 38 1012.5
20260510130750 72 292 3.0 7.0 0.00 0.00 0.00 40 1012.6
20260510130605 72 270 3.0 7.0 0.00 0.00 0.00 40 1012.5
20260510130410 72 292 3.0 5.0 0.00 0.00 0.00 40 1012.6
20260510130225 72 225 3.0 5.0 0.00 0.00 0.00 41 1012.6
20260510130045 72 248 2.0 5.0 0.00 0.00 0.00 40 1012.6
20260510125900 72 248 2.0 5.0 0.00 0.00 0.00 41 1012.6
20260510125710 72 270 2.0 5.0 0.00 0.00 0.00 40 1012.6
20260510125530 71 270 1.0 4.0 0.00 0.00 0.00 39 1012.7
20260510125340 70 158 1.0 4.0 0.00 0.00 0.00 40 1012.6
20260510125313 70 158 2.0 4.0 0.00 0.00 0.00 40 1012.7
20260510125150 70 45 2.0 4.0 0.00 0.00 0.00 42 1012.7
20260510125000 70 45 3.0 4.0 0.00 0.00 0.00 42 1012.8
20260510124815 70 68 4.0 4.0 0.00 0.00 0.00 40 1012.7
20260510124625 70 68 4.0 6.0 0.00 0.00 0.00 42 1012.8
20260510124430 70 202 4.0 7.0 0.00 0.00 0.00 43 1012.8
20260510124245 70 248 4.0 7.0 0.00 0.00 0.00 42 1012.8
20260510124043 71 248 3.0 7.0 0.00 0.00 0.00 41 1012.8
20260510123658 71 270 2.0 5.0 0.00 0.00 0.00 40 1012.9
20260510123611 71 270 2.0 3.0 0.00 0.00 0.00 39 1013.0
20260510123500 71 292 1.0 3.0 0.00 0.00 0.00 41 1012.9
20260510123304 71 248 2.0 3.0 0.00 0.00 0.00 42 1012.9
20260510123115 70 225 2.0 4.0 0.00 0.00 0.00 42 1013.0
20260510122923 70 135 2.0 4.0 0.00 0.00 0.00 41 1013.0
20260510122745 70 112 3.0 5.0 0.00 0.00 0.00 42 1013.0
20260510122610 69 158 4.0 5.0 0.00 0.00 0.00 41 1013.0
20260510122430 69 180 4.0 6.0 0.00 0.00 0.00 43 1013.0
20260510122241 69 158 4.0 7.0 0.00 0.00 0.00 42 1013.1
20260510122057 69 180 5.0 8.0 0.00 0.00 0.00 43 1013.1
20260510121920 69 158 5.0 8.0 0.00 0.00 0.00 45 1013.0
20260510121818 69 225 5.0 11.0 0.00 0.00 0.00 44 1013.1
20260510121725 70 225 5.0 11.0 0.00 0.00 0.00 44 1013.1
20260510121535 70 180 5.0 11.0 0.00 0.00 0.00 44 1013.2
20260510121355 70 225 6.0 11.0 0.00 0.00 0.00 44 1013.2
20260510121205 70 248 5.0 9.0 0.00 0.00 0.00 43 1013.2
20260510121012 70 202 4.0 11.0 0.00 0.00 0.00 44 1013.2
20260510120830 71 22 3.0 6.0 0.00 0.00 0.00 43 1013.2
20260510120655 70 202 3.0 6.0 0.00 0.00 0.00 44 1013.3
20260510120503 70 225 2.0 6.0 0.00 0.00 0.00 44 1013.2
20260510120325 70 202 2.0 6.0 0.00 0.00 0.00 44 1013.1
20260510120247 70 202 2.0 6.0 0.00 0.00 0.00 44 1013.2
20260510120125 70 202 2.0 6.0 0.00 0.00 0.00 44 1013.2
20260510115935 70 112 2.0 3.0 0.00 0.00 0.00 43 1013.2
20260510115755 70 158 2.0 3.0 0.00 0.00 0.00 45 1013.3
20260510115615 69 68 2.0 2.0 0.00 0.00 0.00 44 1013.3
20260510115417 69 68 2.0 4.0 0.00 0.00 0.00 44 1013.3
20260510115220 69 180 2.0 4.0 0.00 0.00 0.00 46 1013.3
20260510115035 69 158 2.0 4.0 0.00 0.00 0.00 45 1013.4
20260510114845 69 180 2.0 4.0 0.00 0.00 0.00 47 1013.4
20260510114710 69 180 2.0 5.0 0.00 0.00 0.00 47 1013.4
20260510114515 68 158 2.0 6.0 0.00 0.00 0.00 47 1013.5
20260510114402 68 158 2.0 6.0 0.00 0.00 0.00 47 1013.5
20260510114325 68 270 2.0 6.0 0.00 0.00 0.00 47 1013.5
20260510114140 68 270 3.0 6.0 0.00 0.00 0.00 46 1013.4
20260510113945 68 248 3.0 6.0 0.00 0.00 0.00 45 1013.4
20260510113810 69 292 2.0 3.0 0.00 0.00 0.00 44 1013.4
20260510113630 69 270 3.0 5.0 0.00 0.00 0.00 46 1013.4
20260510113445 69 270 4.0 6.0 0.00 0.00 0.00 47 1013.5
20260510113300 69 248 4.0 6.0 0.00 0.00 0.00 47 1013.6
20260510113120 69 202 4.0 8.0 0.00 0.00 0.00 46 1013.6
20260510112920 69 180 4.0 8.0 0.00 0.00 0.00 46 1013.6
20260510112720 69 248 4.0 8.0 0.00 0.00 0.00 46 1013.6
20260510112601 69 180 4.0 6.0 0.00 0.00 0.00 45 1013.7
20260510112530 69 202 4.0 6.0 0.00 0.00 0.00 45 1013.7
20260510112335 69 202 4.0 6.0 0.00 0.00 0.00 43 1013.6
20260510112145 69 202 5.0 8.0 0.00 0.00 0.00 43 1013.7
20260510112002 69 202 5.0 8.0 0.00 0.00 0.00 41 1013.7
20260510111810 69 202 4.0 9.0 0.00 0.00 0.00 43 1013.8
20260510111615 69 202 5.0 6.0 0.00 0.00 0.00 45 1013.8
20260510111415 69 180 6.0 6.0 0.00 0.00 0.00 45 1013.7
20260510111220 69 270 5.0 7.0 0.00 0.00 0.00 46 1013.8
20260510111028 69 180 6.0 15.0 0.00 0.00 0.00 47 1013.9
20260510111004 69 180 6.0 15.0 0.00 0.00 0.00 47 1013.8
20260510110840 69 180 6.0 15.0 0.00 0.00 0.00 47 1013.8
20260510110640 69 180 5.0 10.0 0.00 0.00 0.00 46 1013.8
20260510110450 69 158 4.0 7.0 0.00 0.00 0.00 46 1013.8
20260510110300 68 202 4.0 6.0 0.00 0.00 0.00 48 1013.8
20260510110110 68 248 4.0 6.0 0.00 0.00 0.00 49 1013.9
20260510105920 68 202 4.0 9.0 0.00 0.00 0.00 47 1013.9
20260510105735 68 225 5.0 9.0 0.00 0.00 0.00 48 1013.9
20260510105550 68 248 5.0 9.0 0.00 0.00 0.00 51 1013.9
20260510105423 68 158 5.0 9.0 0.00 0.00 0.00 50 1013.9
20260510105404 68 158 5.0 9.0 0.00 0.00 0.00 50 1013.9
20260510105215 68 248 5.0 9.0 0.00 0.00 0.00 49 1013.9
20260510105025 68 202 5.0 9.0 0.00 0.00 0.00 47 1014.1
20260510104840 68 270 5.0 6.0 0.00 0.00 0.00 50 1014.0
20260510104640 68 180 4.0 6.0 0.00 0.00 0.00 48 1014.0
20260510104445 68 225 4.0 6.0 0.00 0.00 0.00 48 1014.0
20260510104304 68 135 4.0 7.0 0.00 0.00 0.00 47 1014.1
20260510104117 68 202 4.0 7.0 0.00 0.00 0.00 48 1014.1
20260510103933 69 180 3.0 7.0 0.00 0.00 0.00 46 1014.0
20260510103740 69 202 4.0 5.0 0.00 0.00 0.00 48 1014.1
20260510103735 69 202 4.0 5.0 0.00 0.00 0.00 47 1014.1
20260510103600 69 180 4.0 5.0 0.00 0.00 0.00 48 1014.2
20260510103400 69 225 3.0 5.0 0.00 0.00 0.00 48 1014.2
20260510103202 69 202 3.0 6.0 0.00 0.00 0.00 47 1014.1
20260510103020 69 225 3.0 7.0 0.00 0.00 0.00 47 1014.2
20260510102835 69 248 2.0 7.0 0.00 0.00 0.00 48 1014.2
20260510102640 69 158 2.0 5.0 0.00 0.00 0.00 47 1014.3
20260510102450 69 158 1.0 3.0 0.00 0.00 0.00 46 1014.2
20260510102253 69 180 2.0 5.0 0.00 0.00 0.00 46 1014.2
20260510102100 69 90 2.0 5.0 0.00 0.00 0.00 48 1014.3
20260510101948 69 90 2.0 5.0 0.00 0.00 0.00 47 1014.2
20260510101904 69 90 2.0 6.0 0.00 0.00 0.00 48 1014.2
20260510101720 69 248 2.0 6.0 0.00 0.00 0.00 49 1014.3
20260510101535 68 112 2.0 6.0 0.00 0.00 0.00 49 1014.3
20260510101349 68 180 2.0 5.0 0.00 0.00 0.00 48 1014.3
20260510101150 68 202 2.0 5.0 0.00 0.00 0.00 48 1014.4
20260510101005 67 158 2.0 3.0 0.00 0.00 0.00 47 1014.3
20260510100810 67 68 3.0 5.0 0.00 0.00 0.00 47 1014.4
20260510100620 67 68 3.0 5.0 0.00 0.00 0.00 49 1014.4
20260510100425 67 68 4.0 5.0 0.00 0.00 0.00 50 1014.4
20260510100240 67 90 4.0 5.0 0.00 0.00 0.00 50 1014.3
20260510100043 67 180 3.0 6.0 0.00 0.00 0.00 52 1014.3
20260510095845 67 270 3.0 5.0 0.00 0.00 0.00 51 1014.4
20260510095702 68 202 3.0 5.0 0.00 0.00 0.00 50 1014.4
20260510095505 68 248 3.0 5.0 0.00 0.00 0.00 49 1014.4
20260510095320 68 202 4.0 6.0 0.00 0.00 0.00 48 1014.4
20260510095135 68 90 4.0 6.0 0.00 0.00 0.00 48 1014.5
20260510094949 68 90 3.0 6.0 0.00 0.00 0.00 48 1014.4
20260510094805 68 68 3.0 6.0 0.00 0.00 0.00 48 1014.5
20260510094616 69 158 3.0 6.0 0.00 0.00 0.00 48 1014.5
20260510094437 69 90 3.0 6.0 0.00 0.00 0.00 48 1014.5
20260510094252 69 68 2.0 5.0 0.00 0.00 0.00 47 1014.5
20260510094115 69 90 2.0 5.0 0.00 0.00 0.00 47 1014.6
20260510093934 69 248 2.0 5.0 0.00 0.00 0.00 46 1014.6
20260510093740 69 68 2.0 5.0 0.00 0.00 0.00 48 1014.6
20260510093550 69 202 2.0 3.0 0.00 0.00 0.00 47 1014.5
20260510093355 69 180 2.0 3.0 0.00 0.00 0.00 47 1014.6
20260510093155 68 270 2.0 4.0 0.00 0.00 0.00 47 1014.6
20260510093037 68 270 3.0 5.0 0.00 0.00 0.00 46 1014.7
20260510093012 68 158 3.0 5.0 0.00 0.00 0.00 46 1014.7
20260510092830 68 158 2.0 5.0 0.00 0.00 0.00 45 1014.7
20260510092630 67 135 3.0 5.0 0.00 0.00 0.00 47 1014.6
20260510092438 67 45 3.0 5.0 0.00 0.00 0.00 47 1014.7
20260510092240 67 45 2.0 5.0 0.00 0.00 0.00 48 1014.7
20260510092053 67 112 3.0 5.0 0.00 0.00 0.00 51 1014.8
20260510091910 67 248 3.0 5.0 0.00 0.00 0.00 51 1014.9
20260510091715 67 225 3.0 7.0 0.00 0.00 0.00 51 1014.9
20260510091535 67 112 3.0 7.0 0.00 0.00 0.00 51 1014.8
20260510091340 67 90 3.0 7.0 0.00 0.00 0.00 52 1014.9
20260510091140 67 202 2.0 7.0 0.00 0.00 0.00 49 1014.9
20260510090941 66 68 3.0 7.0 0.00 0.00 0.00 50 1014.8
20260510090745 66 135 3.0 6.0 0.00 0.00 0.00 49 1014.9
20260510090552 67 112 3.0 6.0 0.00 0.00 0.00 50 1014.9
20260510090405 67 225 3.0 5.0 0.00 0.00 0.00 50 1014.9
20260510090219 67 180 3.0 5.0 0.00 0.00 0.00 51 1014.9
20260510090035 67 202 3.0 5.0 0.00 0.00 0.00 51 1014.9
20260510085850 67 202 3.0 5.0 0.00 0.00 0.00 51 1014.9
20260510085700 68 202 3.0 7.0 0.00 0.00 0.00 50 1014.9
20260510085622 68 225 3.0 5.0 0.00 0.00 0.00 50 1014.9
20260510085505 68 135 2.0 5.0 0.00 0.00 0.00 49 1015.0
20260510085306 68 90 2.0 5.0 0.00 0.00 0.00 50 1015.0
20260510085126 68 68 2.0 4.0 0.00 0.00 0.00 48 1015.1
20260510084930 68 90 2.0 3.0 0.00 0.00 0.00 49 1015.1
20260510084748 68 68 2.0 5.0 0.00 0.00 0.00 49 1015.1
20260510084600 68 135 2.0 5.0 0.00 0.00 0.00 50 1015.2
20260510084410 68 202 2.0 5.0 0.00 0.00 0.00 50 1015.2
20260510084225 68 90 1.0 5.0 0.00 0.00 0.00 49 1015.2
20260510084112 68 135 1.0 5.0 0.00 0.00 0.00 46 1015.2
20260510084025 68 158 1.0 5.0 0.00 0.00 0.00 48 1015.3
20260510083840 67 158 1.0 5.0 0.00 0.00 0.00 50 1015.2
20260510083654 67 68 1.0 5.0 0.00 0.00 0.00 50 1015.2
20260510083512 67 270 1.0 2.0 0.00 0.00 0.00 51 1015.2
20260510083326 67 270 1.0 3.0 0.00 0.00 0.00 50 1015.2
20260510083143 67 270 2.0 6.0 0.00 0.00 0.00 49 1015.3
20260510082944 66 90 2.0 6.0 0.00 0.00 0.00 49 1015.3
20260510082810 66 90 2.0 6.0 0.00 0.00 0.00 51 1015.3
20260510082630 66 180 2.0 5.0 0.00 0.00 0.00 52 1015.2
20260510082514 66 180 2.0 5.0 0.00 0.00 0.00 52 1015.2
20260510082437 66 158 2.0 5.0 0.00 0.00 0.00 52 1015.3
20260510082100 66 158 2.0 6.0 0.00 0.00 0.00 53 1015.4
20260510081920 66 112 3.0 6.0 0.00 0.00 0.00 51 1015.4
20260510081730 66 225 2.0 5.0 0.00 0.00 0.00 52 1015.3
20260510081549 66 158 2.0 6.0 0.00 0.00 0.00 51 1015.3
20260510081406 66 112 2.0 5.0 0.00 0.00 0.00 51 1015.3
20260510081209 66 202 2.0 5.0 0.00 0.00 0.00 51 1015.4
20260510081010 66 112 2.0 5.0 0.00 0.00 0.00 51 1015.4
20260510080820 65 112 3.0 5.0 0.00 0.00 0.00 51 1015.5
20260510080637 65 112 3.0 6.0 0.00 0.00 0.00 51 1015.4
20260510080625 65 112 3.0 6.0 0.00 0.00 0.00 52 1015.4
20260510080427 65 158 2.0 6.0 0.00 0.00 0.00 53 1015.6
20260510080250 64 202 2.0 6.0 0.00 0.00 0.00 55 1015.6
20260510080058 64 68 2.0 6.0 0.00 0.00 0.00 53 1015.6
20260510075919 64 90 2.0 6.0 0.00 0.00 0.00 54 1015.7
20260510075724 63 135 2.0 2.0 0.00 0.00 0.00 53 1015.7
20260510075535 63 135 2.0 5.0 0.00 0.00 0.00 55 1015.8
20260510075343 63 180 3.0 8.0 0.00 0.00 0.00 57 1015.7
20260510075145 63 180 4.0 8.0 0.00 0.00 0.00 58 1015.8
20260510074949 63 202 4.0 6.0 0.00 0.00 0.00 56 1015.7
20260510074832 63 180 4.0 5.0 0.00 0.00 0.00 57 1015.7
20260510074812 63 202 4.0 5.0 0.00 0.00 0.00 58 1015.7
20260510074624 63 180 3.0 8.0 0.00 0.00 0.00 58 1015.7
20260510074446 63 180 3.0 8.0 0.00 0.00 0.00 59 1015.8
20260510074310 63 225 3.0 8.0 0.00 0.00 0.00 58 1015.8
20260510074123 64 180 3.0 4.0 0.00 0.00 0.00 57 1015.8
20260510073925 64 158 3.0 6.0 0.00 0.00 0.00 56 1015.7
20260510073748 64 135 3.0 7.0 0.00 0.00 0.00 55 1015.7
20260510073610 64 158 3.0 7.0 0.00 0.00 0.00 57 1015.8
20260510073435 64 202 3.0 7.0 0.00 0.00 0.00 56 1015.8
20260510073232 64 202 3.0 6.0 0.00 0.00 0.00 55 1015.8
20260510073053 64 112 2.0 6.0 0.00 0.00 0.00 55 1015.8
20260510072905 63 158 3.0 5.0 0.00 0.00 0.00 55 1015.9
20260510072725 63 90 3.0 5.0 0.00 0.00 0.00 53 1015.9
20260510072535 63 158 3.0 5.0 0.00 0.00 0.00 56 1015.9
20260510072350 63 112 3.0 6.0 0.00 0.00 0.00 55 1016.0
20260510072214 62 90 3.0 6.0 0.00 0.00 0.00 56 1016.0
20260510072019 62 90 4.0 6.0 0.00 0.00 0.00 58 1016.1
20260510071835 62 180 3.0 5.0 0.00 0.00 0.00 57 1016.1
20260510071655 62 158 4.0 6.0 0.00 0.00 0.00 58 1016.1
20260510071500 62 158 4.0 6.0 0.00 0.00 0.00 58 1016.0
20260510071342 61 180 4.0 6.0 0.00 0.00 0.00 58 1016.1
20260510071303 61 158 4.0 7.0 0.00 0.00 0.00 59 1016.1
20260510071105 61 112 3.0 6.0 0.00 0.00 0.00 58 1016.1
20260510070925 61 90 3.0 6.0 0.00 0.00 0.00 60 1016.1
20260510070729 61 90 3.0 8.0 0.00 0.00 0.00 58 1016.0
20260510070545 61 180 3.0 6.0 0.00 0.00 0.00 61 1016.1
20260510070353 61 158 3.0 6.0 0.00 0.00 0.00 61 1016.1
20260510070202 61 202 4.0 6.0 0.00 0.00 0.00 61 1016.0
20260510070010 62 90 3.0 6.0 0.00 0.00 0.00 60 1016.1
20260510065810 62 45 3.0 6.0 0.00 0.00 0.00 62 1016.1
20260510065614 62 135 3.0 5.0 0.00 0.00 0.00 60 1016.2
20260510065536 62 180 3.0 5.0 0.00 0.00 0.00 60 1016.2
20260510065425 62 158 3.0 5.0 0.00 0.00 0.00 58 1016.2
20260510065235 61 180 3.0 5.0 0.00 0.00 0.00 57 1016.3
20260510065034 61 0 3.0 6.0 0.00 0.00 0.00 58 1016.2
20260510064840 61 90 3.0 7.0 0.00 0.00 0.00 61 1016.2
20260510064702 60 180 3.0 7.0 0.00 0.00 0.00 60 1016.3
20260510064510 60 68 3.0 7.0 0.00 0.00 0.00 59 1016.2
20260510064330 60 90 3.0 6.0 0.00 0.00 0.00 61 1016.2
20260510064129 60 68 4.0 6.0 0.00 0.00 0.00 63 1016.2
20260510063945 60 112 4.0 6.0 0.00 0.00 0.00 63 1016.1
20260510063913 60 202 4.0 6.0 0.00 0.00 0.00 62 1016.1
20260510063758 60 68 4.0 7.0 0.00 0.00 0.00 63 1016.1
20260510063615 60 180 4.0 7.0 0.00 0.00 0.00 62 1016.1
20260510063430 60 68 4.0 8.0 0.00 0.00 0.00 62 1016.2
20260510063245 60 135 4.0 8.0 0.00 0.00 0.00 64 1016.1
20260510063045 60 90 3.0 8.0 0.00 0.00 0.00 63 1016.1
20260510062905 60 68 3.0 6.0 0.00 0.00 0.00 64 1016.2
20260510062720 60 68 3.0 5.0 0.00 0.00 0.00 64 1016.1
20260510062526 59 180 2.0 5.0 0.00 0.00 0.00 64 1016.2
20260510062350 59 135 2.0 4.0 0.00 0.00 0.00 65 1016.1
20260510062216 59 225 3.0 4.0 0.00 0.00 0.00 64 1016.1
20260510062150 59 225 3.0 4.0 0.00 0.00 0.00 65 1016.2
20260510062001 59 180 3.0 5.0 0.00 0.00 0.00 67 1016.2
20260510061802 58 90 4.0 5.0 0.00 0.00 0.00 65 1016.2
20260510061625 58 202 4.0 7.0 0.00 0.00 0.00 67 1016.1
20260510061450 58 90 4.0 7.0 0.00 0.00 0.00 68 1016.2
20260510061250 58 112 5.0 7.0 0.00 0.00 0.00 70 1016.2
20260510061053 58 45 5.0 8.0 0.00 0.00 0.00 69 1016.2
20260510060853 58 68 5.0 8.0 0.00 0.00 0.00 70 1016.2
20260510060704 57 68 5.0 8.0 0.00 0.00 0.00 70 1016.2
20260510060525 57 68 5.0 8.0 0.00 0.00 0.00 73 1016.2
20260510060456 57 68 5.0 8.0 0.00 0.00 0.00 73 1016.2
20260510060344 57 68 4.0 8.0 0.00 0.00 0.00 70 1016.3
20260510060153 57 45 4.0 5.0 0.00 0.00 0.00 71 1016.3
20260510060010 57 112 4.0 7.0 0.00 0.00 0.00 72 1016.3
20260510055825 57 90 4.0 7.0 0.00 0.00 0.00 74 1016.3
20260510055626 57 68 4.0 7.0 0.00 0.00 0.00 75 1016.4
20260510055450 57 90 3.0 6.0 0.00 0.00 0.00 72 1016.4
20260510055255 58 90 4.0 6.0 0.00 0.00 0.00 74 1016.4
20260510055115 58 90 4.0 6.0 0.00 0.00 0.00 74 1016.4
20260510054934 58 112 4.0 6.0 0.00 0.00 0.00 72 1016.4
20260510054745 58 68 4.0 6.0 0.00 0.00 0.00 69 1016.5
20260510054545 57 90 4.0 8.0 0.00 0.00 0.00 72 1016.5
20260510054400 57 90 4.0 8.0 0.00 0.00 0.00 72 1016.6
20260510054220 57 68 4.0 8.0 0.00 0.00 0.00 71 1016.5
20260510054030 57 45 4.0 5.0 0.00 0.00 0.00 71 1016.5
20260510053833 56 68 4.0 5.0 0.00 0.00 0.00 74 1016.5
20260510053640 56 90 3.0 6.0 0.00 0.00 0.00 73 1016.6
20260510053445 56 90 3.0 6.0 0.00 0.00 0.00 74 1016.5
20260510053250 55 45 3.0 6.0 0.00 0.00 0.00 74 1016.5
20260510053106 55 90 3.0 5.0 0.00 0.00 0.00 75 1016.5
20260510052912 55 90 3.0 3.0 0.00 0.00 0.00 74 1016.6
20260510052724 55 68 3.0 5.0 0.00 0.00 0.00 74 1016.6
20260510052525 55 68 3.0 6.0 0.00 0.00 0.00 76 1016.5
20260510052342 54 90 3.0 6.0 0.00 0.00 0.00 78 1016.5
20260510052159 54 112 3.0 6.0 0.00 0.00 0.00 79 1016.6
20260510052012 54 68 3.0 5.0 0.00 0.00 0.00 76 1016.6
20260510051835 54 90 3.0 5.0 0.00 0.00 0.00 75 1016.5
20260510051654 54 90 3.0 5.0 0.00 0.00 0.00 77 1016.6
20260510051500 53 68 3.0 5.0 0.00 0.00 0.00 78 1016.5
20260510051330 53 68 3.0 5.0 0.00 0.00 0.00 78 1016.5
20260510051305 53 68 3.0 5.0 0.00 0.00 0.00 78 1016.5
20260510051109 53 90 3.0 5.0 0.00 0.00 0.00 79 1016.5
20260510050912 53 90 4.0 5.0 0.00 0.00 0.00 80 1016.4
20260510050715 53 68 3.0 5.0 0.00 0.00 0.00 80 1016.3
20260510050513 53 45 3.0 7.0 0.00 0.00 0.00 81 1016.4
20260510050320 53 68 3.0 7.0 0.00 0.00 0.00 82 1016.3
20260510050140 53 68 3.0 7.0 0.00 0.00 0.00 81 1016.3
20260510045955 52 68 2.0 4.0 0.00 0.00 0.00 82 1016.3
20260510045815 52 68 2.0 5.0 0.00 0.00 0.00 82 1016.4
20260510045619 52 68 2.0 5.0 0.00 0.00 0.00 83 1016.3
20260510045554 52 68 2.0 5.0 0.00 0.00 0.00 83 1016.3
20260510045420 52 68 2.0 5.0 0.00 0.00 0.00 83 1016.3
20260510045240 52 90 2.0 5.0 0.00 0.00 0.00 83 1016.3
20260510045039 52 68 1.0 5.0 0.00 0.00 0.00 83 1016.3
20260510044853 51 68 1.0 4.0 0.00 0.00 0.00 84 1016.4
20260510044715 51 68 1.0 5.0 0.00 0.00 0.00 85 1016.4
20260510044524 51 68 1.0 5.0 0.00 0.00 0.00 86 1016.4
20260510044333 51 68 1.0 4.0 0.00 0.00 0.00 85 1016.4
20260510044139 51 68 1.0 5.0 0.00 0.00 0.00 86 1016.5
20260510044004 50 68 1.0 5.0 0.00 0.00 0.00 88 1016.5
20260510043805 50 68 1.0 5.0 0.00 0.00 0.00 87 1016.6
20260510043751 50 68 1.0 5.0 0.00 0.00 0.00 87 1016.5
20260510043605 50 68 1.0 3.0 0.00 0.00 0.00 88 1016.5
20260510043413 49 68 1.0 2.0 0.00 0.00 0.00 89 1016.6
20260510043225 49 68 1.0 3.0 0.00 0.00 0.00 91 1016.6
20260510043045 49 68 1.0 3.0 0.00 0.00 0.00 91 1016.7
20260510042850 48 68 1.0 3.0 0.00 0.00 0.00 92 1016.6
20260510042650 48 68 1.0 3.0 0.00 0.00 0.00 93 1016.7
20260510042514 48 68 2.0 3.0 0.00 0.00 0.00 93 1016.7
20260510042331 47 68 2.0 3.0 0.00 0.00 0.00 94 1016.7
20260510042236 47 68 2.0 3.0 0.00 0.00 0.00 94 1016.7
20260510042143 47 68 2.0 5.0 0.00 0.00 0.00 95 1016.7
20260510041952 47 68 2.0 5.0 0.00 0.00 0.00 96 1016.8
20260510041759 46 68 2.0 5.0 0.00 0.00 0.00 96 1016.8
20260510041611 46 68 1.0 3.0 0.00 0.00 0.00 97 1016.8
20260510041417 46 68 1.0 3.0 0.00 0.00 0.00 98 1016.8
20260510041225 46 68 1.0 3.0 0.00 0.00 0.00 98 1016.9
20260510041030 45 68 0.0 2.0 0.00 0.00 0.00 99 1016.8
20260510040850 45 68 0.0 2.0 0.00 0.00 0.00 99 1016.9
20260510040654 45 0 0.0 0.0 0.00 0.00 0.00 99 1016.9
20260510040502 45 0 0.0 0.0 0.00 0.00 0.00 99 1017.0
20260510040318 45 0 0.0 0.0 0.00 0.00 0.00 99 1017.0
20260510040140 44 0 0.0 0.0 0.00 0.00 0.00 99 1017.0
20260510035950 44 0 0.0 0.0 0.00 0.00 0.00 99 1017.0
20260510035756 44 0 0.0 0.0 0.00 0.00 0.00 99 1017.0
20260510035600 44 0 0.0 0.0 0.00 0.00 0.00 99 1017.0
20260510035403 44 0 0.0 0.0 0.00 0.00 0.00 99 1017.0
20260510035209 44 0 0.0 0.0 0.00 0.00 0.00 98 1017.0
20260510035020 44 0 0.0 0.0 0.00 0.00 0.00 99 1017.0
20260510034834 44 0 0.0 0.0 0.00 0.00 0.00 99 1017.0
20260510034654 44 0 0.0 0.0 0.00 0.00 0.00 98 1016.9
20260510034647 44 0 0.0 0.0 0.00 0.00 0.00 98 1017.0
20260510034515 44 0 0.0 0.0 0.00 0.00 0.00 98 1016.9
20260510034340 44 0 0.0 0.0 0.00 0.00 0.00 98 1017.0
20260510034145 44 0 0.0 0.0 0.00 0.00 0.00 99 1017.1
20260510034000 44 0 0.0 0.0 0.00 0.00 0.00 98 1017.0
20260510033810 44 0 0.0 0.0 0.00 0.00 0.00 98 1016.9
20260510033618 43 0 0.0 0.0 0.00 0.00 0.00 98 1016.9
20260510033425 43 0 0.0 0.0 0.00 0.00 0.00 98 1016.9
20260510033245 43 0 0.0 0.0 0.00 0.00 0.00 98 1017.0
20260510033105 43 0 0.0 0.0 0.00 0.00 0.00 98 1017.0
20260510033031 43 0 0.0 0.0 0.00 0.00 0.00 98 1017.0
20260510032919 43 0 0.0 0.0 0.00 0.00 0.00 98 1017.0
20260510032730 43 0 0.0 0.0 0.00 0.00 0.00 98 1017.1
20260510032545 44 0 0.0 0.0 0.00 0.00 0.00 98 1017.1
20260510032401 44 0 0.0 0.0 0.00 0.00 0.00 98 1017.3
20260510032204 44 0 0.0 0.0 0.00 0.00 0.00 98 1017.3
20260510032005 44 0 0.0 0.0 0.00 0.00 0.00 98 1017.4
20260510031823 44 0 0.0 0.0 0.00 0.00 0.00 98 1017.3
20260510031635 44 0 0.0 0.0 0.00 0.00 0.00 98 1017.4
20260510031448 44 0 0.0 0.0 0.00 0.00 0.00 98 1017.4
20260510031326 44 0 0.0 0.0 0.00 0.00 0.00 98 1017.4
20260510031300 44 0 0.0 0.0 0.00 0.00 0.00 98 1017.4
20260510031105 44 0 0.0 0.0 0.00 0.00 0.00 98 1017.4
20260510030910 44 0 0.0 0.0 0.00 0.00 0.00 98 1017.3
20260510030719 44 0 0.0 0.0 0.00 0.00 0.00 98 1017.3
20260510030535 44 0 0.0 0.0 0.00 0.00 0.00 98 1017.2
20260510030355 44 0 0.0 0.0 0.00 0.00 0.00 98 1017.3
20260510030209 44 0 0.0 0.0 0.00 0.00 0.00 98 1017.2
20260510030026 44 0 0.0 0.0 0.00 0.00 0.00 98 1017.2
20260510025840 44 0 0.0 0.0 0.00 0.00 0.00 98 1017.2
20260510025639 44 0 0.0 0.0 0.00 0.00 0.00 98 1017.2
20260510025434 44 0 0.0 0.0 0.00 0.00 0.00 98 1017.2
20260510025250 44 0 0.0 0.0 0.00 0.00 0.00 97 1017.2
20260510025100 44 0 0.0 0.0 0.00 0.00 0.00 97 1017.3
20260510024905 44 0 0.0 0.0 0.00 0.00 0.00 97 1017.3
20260510024721 45 0 0.0 0.0 0.00 0.00 0.00 97 1017.3
20260510024545 45 0 0.0 0.0 0.00 0.00 0.00 97 1017.4
20260510024403 45 0 0.0 0.0 0.00 0.00 0.00 97 1017.4
20260510024220 45 0 0.0 0.0 0.00 0.00 0.00 97 1017.3
20260510024035 45 0 0.0 0.0 0.00 0.00 0.00 97 1017.4
20260510023835 45 0 0.0 0.0 0.00 0.00 0.00 97 1017.4
20260510023645 45 0 0.0 0.0 0.00 0.00 0.00 97 1017.3
20260510023602 45 0 0.0 0.0 0.00 0.00 0.00 97 1017.3
20260510023448 45 0 0.0 0.0 0.00 0.00 0.00 97 1017.3
20260510023300 45 0 0.0 0.0 0.00 0.00 0.00 97 1017.3
20260510023125 45 0 0.0 0.0 0.00 0.00 0.00 97 1017.3
20260510022936 45 0 0.0 2.0 0.00 0.00 0.00 97 1017.2
20260510022740 45 68 0.0 2.0 0.00 0.00 0.00 97 1017.2
20260510022550 45 0 0.0 1.0 0.00 0.00 0.00 97 1017.2
20260510022410 45 68 0.0 0.0 0.00 0.00 0.00 97 1017.2
20260510022210 45 68 0.0 1.0 0.00 0.00 0.00 97 1017.3
20260510022029 45 68 0.0 1.0 0.00 0.00 0.00 97 1017.3
20260510021850 45 68 0.0 1.0 0.00 0.00 0.00 97 1017.3
20260510021817 45 68 0.0 1.0 0.00 0.00 0.00 97 1017.3
20260510021655 45 68 0.0 0.0 0.00 0.00 0.00 97 1017.3
20260510021513 45 68 0.0 2.0 0.00 0.00 0.00 97 1017.3
20260510021330 45 68 0.0 0.0 0.00 0.00 0.00 97 1017.3
20260510021150 45 68 0.0 0.0 0.00 0.00 0.00 97 1017.4
20260510020954 45 68 1.0 2.0 0.00 0.00 0.00 97 1017.4
20260510020625 45 68 1.0 2.0 0.00 0.00 0.00 97 1017.3
20260510020425 45 90 1.0 2.0 0.00 0.00 0.00 97 1017.3
20260510020250 45 90 0.0 2.0 0.00 0.00 0.00 97 1017.4
20260510020100 45 90 0.0 2.0 0.00 0.00 0.00 97 1017.5
20260510015905 45 0 0.0 0.0 0.00 0.00 0.00 97 1017.5
20260510015730 45 0 0.0 0.0 0.00 0.00 0.00 97 1017.6
20260510015545 45 0 0.0 0.0 0.00 0.00 0.00 97 1017.6
20260510015350 45 0 0.0 0.0 0.00 0.00 0.00 97 1017.6
20260510015154 45 0 0.0 0.0 0.00 0.00 0.00 97 1017.6
20260510015013 45 0 0.0 0.0 0.00 0.00 0.00 96 1017.6
20260510014819 45 0 0.0 0.0 0.00 0.00 0.00 96 1017.7
20260510014635 45 0 0.0 0.0 0.00 0.00 0.00 97 1017.7
20260510014450 46 0 0.0 0.0 0.00 0.00 0.00 96 1017.8
20260510014305 46 0 0.0 0.0 0.00 0.00 0.00 96 1017.7
20260510014115 46 0 0.0 0.0 0.00 0.00 0.00 97 1017.7
20260510013930 46 0 0.0 0.0 0.00 0.00 0.00 97 1017.7
20260510013740 46 0 0.0 0.0 0.00 0.00 0.00 97 1017.7
20260510013555 46 0 0.0 0.0 0.00 0.00 0.00 96 1017.8
20260510013414 46 0 0.0 0.0 0.00 0.00 0.00 96 1017.8
20260510013230 46 90 0.0 0.0 0.00 0.00 0.00 97 1017.8
20260510013050 46 90 0.0 2.0 0.00 0.00 0.00 96 1017.7
20260510012858 46 90 0.0 2.0 0.00 0.00 0.00 96 1017.7
20260510012728 46 90 0.0 2.0 0.00 0.00 0.00 96 1017.7
20260510012535 46 90 0.0 1.0 0.00 0.00 0.00 97 1017.6
20260510012337 46 90 0.0 1.0 0.00 0.00 0.00 97 1017.6
20260510012153 46 90 0.0 1.0 0.00 0.00 0.00 97 1017.6
20260510012010 46 90 0.0 1.0 0.00 0.00 0.00 97 1017.6
20260510011815 46 90 0.0 1.0 0.00 0.00 0.00 97 1017.7
20260510011622 46 90 0.0 2.0 0.00 0.00 0.00 97 1017.8
20260510011429 46 0 0.0 2.0 0.00 0.00 0.00 97 1017.8
20260510011231 46 0 0.0 2.0 0.00 0.00 0.00 97 1017.9
20260510011043 46 0 0.0 0.0 0.00 0.00 0.00 97 1018.0
20260510010845 46 0 0.0 0.0 0.00 0.00 0.00 97 1018.1
20260510010655 46 0 0.0 0.0 0.00 0.00 0.00 97 1018.1
20260510010515 46 0 0.0 0.0 0.00 0.00 0.00 97 1018.0
20260510010325 46 0 0.0 0.0 0.00 0.00 0.00 97 1018.1
20260510010126 46 0 0.0 0.0 0.00 0.00 0.00 97 1018.1
20260510005934 46 0 0.0 2.0 0.00 0.00 0.00 97 1018.2
20260510005750 46 0 0.0 2.0 0.00 0.00 0.00 98 1018.2
20260510005605 46 0 0.0 2.0 0.00 0.00 0.00 98 1018.2
20260510005440 46 0 0.0 0.0 0.00 0.00 0.00 97 1018.2
20260510005406 46 0 0.0 0.0 0.00 0.00 0.00 97 1018.1
20260510005210 46 0 0.0 0.0 0.00 0.00 0.00 97 1018.2
20260510005034 46 90 0.0 0.0 0.00 0.00 0.00 97 1018.2
20260510004645 46 90 1.0 0.0 0.00 0.00 0.00 97 1018.3
20260510004505 46 90 1.0 2.0 0.00 0.00 0.00 98 1018.4
20260510004315 46 90 1.0 2.0 0.00 0.00 0.00 97 1018.4
20260510004115 46 90 1.0 2.0 0.00 0.00 0.00 97 1018.4
20260510003926 46 90 0.0 2.0 0.00 0.00 0.00 98 1018.5
20260510003738 46 0 0.0 0.0 0.00 0.00 0.00 97 1018.5
20260510003540 46 90 0.0 0.0 0.00 0.00 0.00 97 1018.5
20260510003343 46 90 0.0 1.0 0.00 0.00 0.00 97 1018.6
20260510003202 46 90 0.0 2.0 0.00 0.00 0.00 98 1018.6
20260510003010 46 90 0.0 2.0 0.00 0.00 0.00 98 1018.6
20260510002811 46 90 0.0 2.0 0.00 0.00 0.00 98 1018.6
20260510002628 46 0 0.0 0.0 0.00 0.00 0.00 98 1018.7
20260510002434 46 0 0.0 0.0 0.00 0.00 0.00 98 1018.7
20260510002250 46 0 0.0 0.0 0.00 0.00 0.00 98 1018.7
20260510002117 46 90 0.0 0.0 0.00 0.00 0.00 98 1018.8
20260510002050 46 90 0.0 0.0 0.00 0.00 0.00 98 1018.8
20260510001910 46 90 1.0 0.0 0.00 0.00 0.00 98 1018.8
20260510001710 46 90 1.0 0.0 0.00 0.00 0.00 98 1018.8
20260510001525 46 90 1.0 3.0 0.00 0.00 0.00 98 1018.9
20260510001325 45 90 1.0 3.0 0.00 0.00 0.00 98 1018.9
20260510001129 45 90 1.0 3.0 0.00 0.00 0.00 98 1018.9
20260510000940 45 90 0.0 2.0 0.00 0.00 0.00 98 1019.0
20260510000740 45 90 0.0 2.0 0.00 0.00 0.00 98 1019.0
20260510000555 45 90 0.0 2.0 0.00 0.00 0.00 98 1019.0
20260510000411 45 0 0.0 1.0 0.00 0.00 0.00 98 1019.0
20260510000319 45 0 0.0 0.0 0.00 0.00 0.00 97 1018.9
20260510000211 45 0 0.0 0.0 0.00 0.00 0.00 97 1019.0
20260510000013 45 0 0.0 0.0 0.00 0.00 0.00 97 1019.0
20260509235820 45 0 0.0 0.0 0.00 0.00 0.00 97 1019.1
20260509235640 45 0 0.0 0.0 0.00 0.00 0.00 97 1019.1
20260509235445 45 0 0.0 0.0 0.00 0.00 0.00 97 1019.1
20260509235310 45 0 0.0 0.0 0.00 0.00 0.00 97 1019.0
20260509235112 45 0 0.0 0.0 0.00 0.00 0.00 97 1019.1
20260509234915 45 0 0.0 0.0 0.00 0.00 0.00 97 1019.1
20260509234720 45 0 0.0 0.0 0.00 0.00 0.00 97 1019.1
20260509234539 45 0 0.0 0.0 0.00 0.00 0.00 97 1019.1
20260509234522 45 0 0.0 0.0 0.00 0.00 0.00 97 1019.1
20260509234340 45 0 0.0 0.0 0.00 0.00 0.00 97 1019.1
20260509234202 45 0 0.0 0.0 0.00 0.00 0.00 97 1019.1
20260509234025 45 0 0.0 0.0 0.00 0.00 0.00 97 1019.1
20260509233840 45 0 0.0 0.0 0.00 0.00 0.00 97 1019.1
20260509233645 45 0 0.0 0.0 0.00 0.00 0.00 97 1019.1
20260509233505 45 0 0.0 0.0 0.00 0.00 0.00 97 1019.1
20260509233322 45 0 0.0 0.0 0.00 0.00 0.00 97 1019.2
20260509233130 45 0 0.0 0.0 0.00 0.00 0.00 97 1019.2
20260509232952 45 0 0.0 0.0 0.00 0.00 0.00 97 1019.2
20260509232805 45 0 0.0 0.0 0.00 0.00 0.00 96 1019.2
20260509232728 45 0 0.0 0.0 0.00 0.00 0.00 96 1019.3
20260509232625 45 0 0.0 0.0 0.00 0.00 0.00 96 1019.3
20260509232430 45 0 0.0 0.0 0.00 0.00 0.00 96 1019.3
20260509232250 45 0 0.0 0.0 0.00 0.00 0.00 96 1019.4
20260509232105 45 0 0.0 0.0 0.00 0.00 0.00 96 1019.5
20260509231912 45 0 0.0 0.0 0.00 0.00 0.00 96 1019.4
20260509231730 45 0 0.0 0.0 0.00 0.00 0.00 96 1019.4
20260509231535 45 0 0.0 0.0 0.00 0.00 0.00 97 1019.4
20260509231340 46 0 0.0 0.0 0.00 0.00 0.00 96 1019.5
20260509231202 46 0 0.0 0.0 0.00 0.00 0.00 96 1019.5
20260509231006 46 0 0.0 0.0 0.00 0.00 0.00 96 1019.6
20260509230941 46 0 0.0 0.0 0.00 0.00 0.00 96 1019.5
20260509230820 46 0 0.0 0.0 0.00 0.00 0.00 96 1019.5
20260509230630 46 0 0.0 0.0 0.00 0.00 0.00 96 1019.6
20260509230437 46 0 0.0 0.0 0.00 0.00 0.00 96 1019.6
20260509230255 46 0 0.0 0.0 0.00 0.00 0.00 97 1019.7
20260509230100 46 0 0.0 0.0 0.00 0.00 0.00 96 1019.7
20260509225923 46 0 0.0 0.0 0.00 0.00 0.00 96 1019.8
20260509225730 46 0 0.0 0.0 0.00 0.00 0.00 96 1019.6
20260509225532 46 0 0.0 0.0 0.00 0.00 0.00 96 1019.6
20260509225354 46 0 0.0 0.0 0.00 0.00 0.00 96 1019.7
20260509225306 46 0 0.0 0.0 0.00 0.00 0.00 96 1019.7
20260509225155 46 0 0.0 0.0 0.00 0.00 0.00 96 1019.6
20260509225010 45 0 0.0 0.0 0.00 0.00 0.00 96 1019.6
20260509224823 45 0 0.0 0.0 0.00 0.00 0.00 96 1019.7
20260509224635 45 0 0.0 0.0 0.00 0.00 0.00 96 1019.6
20260509224440 45 0 0.0 0.0 0.00 0.00 0.00 96 1019.6
20260509224257 45 0 0.0 0.0 0.00 0.00 0.00 96 1019.6
20260509224100 45 0 0.0 0.0 0.00 0.00 0.00 96 1019.6
20260509223910 45 0 0.0 0.0 0.00 0.00 0.00 96 1019.7
20260509223720 45 0 0.0 0.0 0.00 0.00 0.00 96 1019.7
20260509223636 45 0 0.0 0.0 0.00 0.00 0.00 96 1019.7
20260509223520 45 0 0.0 0.0 0.00 0.00 0.00 96 1019.6
20260509223321 46 0 0.0 0.0 0.00 0.00 0.00 96 1019.7
20260509223135 46 0 0.0 0.0 0.00 0.00 0.00 95 1019.7
20260509222952 46 0 0.0 0.0 0.00 0.00 0.00 95 1019.7
20260509222807 46 0 0.0 0.0 0.00 0.00 0.00 95 1019.7
20260509222612 46 0 0.0 0.0 0.00 0.00 0.00 95 1019.7
20260509222423 46 0 0.0 0.0 0.00 0.00 0.00 95 1019.8
20260509222225 46 0 0.0 0.0 0.00 0.00 0.00 95 1019.8
20260509222027 46 0 0.0 0.0 0.00 0.00 0.00 96 1019.8
20260509221843 46 0 0.0 0.0 0.00 0.00 0.00 95 1019.7
20260509221652 46 0 0.0 0.0 0.00 0.00 0.00 95 1019.8
20260509221452 46 0 0.0 0.0 0.00 0.00 0.00 94 1019.8
20260509221305 46 0 0.0 0.0 0.00 0.00 0.00 94 1019.7
20260509221110 46 0 0.0 0.0 0.00 0.00 0.00 94 1019.7
20260509220918 46 0 0.0 0.0 0.00 0.00 0.00 94 1019.8
20260509220740 46 0 0.0 0.0 0.00 0.00 0.00 94 1019.8
20260509220552 46 0 0.0 0.0 0.00 0.00 0.00 94 1019.8
20260509220416 46 0 0.0 0.0 0.00 0.00 0.00 94 1019.8
20260509220225 46 0 0.0 0.0 0.00 0.00 0.00 94 1019.9
20260509220039 46 0 0.0 0.0 0.00 0.00 0.00 93 1019.8
20260509215855 46 0 0.0 0.0 0.00 0.00 0.00 94 1019.7
20260509215655 46 0 0.0 0.0 0.00 0.00 0.00 93 1019.8
20260509215456 47 0 0.0 0.0 0.00 0.00 0.00 94 1019.8
20260509215306 47 0 0.0 0.0 0.00 0.00 0.00 94 1019.9
20260509215105 47 0 0.0 0.0 0.00 0.00 0.00 93 1019.8
20260509214915 47 0 0.0 0.0 0.00 0.00 0.00 93 1019.9
20260509214718 47 0 0.0 0.0 0.00 0.00 0.00 93 1019.8
20260509214612 47 0 0.0 0.0 0.00 0.00 0.00 93 1019.8
20260509214530 47 0 0.0 0.0 0.00 0.00 0.00 93 1019.8
20260509214350 47 0 0.0 0.0 0.00 0.00 0.00 93 1019.8
20260509214151 47 0 0.0 0.0 0.00 0.00 0.00 93 1019.8
20260509214005 47 0 0.0 0.0 0.00 0.00 0.00 93 1019.8
20260509213815 47 0 0.0 0.0 0.00 0.00 0.00 92 1019.8
20260509213630 47 0 0.0 0.0 0.00 0.00 0.00 92 1019.9
20260509213445 47 0 0.0 0.0 0.00 0.00 0.00 92 1019.8
20260509213305 47 0 0.0 0.0 0.00 0.00 0.00 92 1020.0
20260509213117 47 0 0.0 0.0 0.00 0.00 0.00 92 1019.9
20260509212918 47 0 0.0 0.0 0.00 0.00 0.00 93 1019.8
20260509212716 47 0 0.0 0.0 0.00 0.00 0.00 93 1019.9
20260509212550 47 0 0.0 0.0 0.00 0.00 0.00 93 1019.9
20260509212412 47 0 0.0 0.0 0.00 0.00 0.00 92 1020.0
20260509212215 48 0 0.0 0.0 0.00 0.00 0.00 92 1019.9
20260509212020 48 0 0.0 0.0 0.00 0.00 0.00 92 1019.9
20260509211835 48 0 0.0 0.0 0.00 0.00 0.00 92 1019.9